Hoquiam, WA
on Thursday, February 21, 2013

Thursday
Previous Day Next Day
Daily Summary
 ActualAverageRecord
Temperature
Mean Temperature °F / °C 44°F / 7°C  
Max Temperature 46°F / 8°C 50°F / 10°C 64°F / 17°C (1970)
Min Temperature 39°F / 4°C 38°F / 3°C 28°F / -2°C (1955)
Degree Days
Heating Degree Days 22 21  
Month to date heating degree days 451  
Cooling Degree Days 0 0  
Month to date cooling degree days 0  
Year to date cooling degree days 0  
Moisture
Dew Point 41°F / 5°C   
Average Humidity 89    
Maximum Humidity 100    
Minimum Humidity 76    
Precipitation
Precipitation 0.38 in / 9.65 cm 0.23 in / 5.84 cm 1.72 in / 4.37 cm (2012)
Month to date precipitation 5.51  
Year to date precipitation 15.84  
Wind
Wind Speed 8 mph / 13 km/h   
Max Wind Speed 21 mph / 34 km/h   
Max Gust Speed 32 mph / 52 km/h   
Visibility 8 miles / 14 kilometers   
Events Rain   

Key: T is trace of precipitation, MM is missing value
Source: NWS Daily Summary
Time(PST)TemperatureDew PointHumidity Pressure Visibility Wind DirectionWind SpeedGust SpeedPrecipitationEvents Conditions
12:53 AM 39.9°F / 4.4°C 39.0°F / 3.9°C 97% 30.06 in / 1017.9 hPa 10.0 miles / 16.1 kilometers Calm Calm - N/A   Overcast
1:11 AM 39.2°F / 4.0°C 37.4°F / 3.0°C 93% 30.06 in / 1017.8 hPa 10.0 miles / 16.1 kilometers West 3.5 mph / 5.6 km/h - N/A   Overcast
1:23 AM 39.2°F / 4.0°C 39.2°F / 4.0°C 100% 30.05 in / 1017.5 hPa 10.0 miles / 16.1 kilometers Calm Calm - N/A   Mostly Cloudy
1:37 AM 39.2°F / 4.0°C 37.4°F / 3.0°C 93% 30.06 in / 1017.8 hPa 10.0 miles / 16.1 kilometers WSW 3.5 mph / 5.6 km/h - N/A   Mostly Cloudy
1:48 AM 39.2°F / 4.0°C 39.2°F / 4.0°C 100% 30.07 in / 1018.2 hPa 10.0 miles / 16.1 kilometers WSW 4.6 mph / 7.4 km/h - N/A   Mostly Cloudy
1:53 AM 41.0°F / 5.0°C 39.0°F / 3.9°C 93% 30.08 in / 1018.5 hPa 10.0 miles / 16.1 kilometers WSW 4.6 mph / 7.4 km/h - N/A   Overcast
2:03 AM 41.0°F / 5.0°C 39.2°F / 4.0°C 93% 30.07 in / 1018.2 hPa 9.0 miles / 14.5 kilometers WSW 5.8 mph / 9.3 km/h - 0.00 in / 0.0 cm Rain Light Rain
2:27 AM 41.0°F / 5.0°C 39.2°F / 4.0°C 93% 30.07 in / 1018.2 hPa 7.0 miles / 11.3 kilometers West 3.5 mph / 5.6 km/h - 0.01 in / 0.3 cm Rain Light Rain
2:48 AM 42.8°F / 6.0°C 41.0°F / 5.0°C 93% 30.06 in / 1017.8 hPa 10.0 miles / 16.1 kilometers SSW 5.8 mph / 9.3 km/h - 0.01 in / 0.3 cm   Overcast
2:53 AM 42.1°F / 5.6°C 41.0°F / 5.0°C 96% 30.07 in / 1018.3 hPa 10.0 miles / 16.1 kilometers SSW 5.8 mph / 9.3 km/h - 0.01 in / 0.3 cm   Overcast
3:11 AM 42.8°F / 6.0°C 41.0°F / 5.0°C 93% 30.07 in / 1018.2 hPa 10.0 miles / 16.1 kilometers SSW 6.9 mph / 11.1 km/h - N/A   Overcast
3:53 AM 43.0°F / 6.1°C 41.0°F / 5.0°C 93% 30.08 in / 1018.6 hPa 10.0 miles / 16.1 kilometers SSW 12.7 mph / 20.4 km/h - N/A   Overcast
4:53 AM 43.0°F / 6.1°C 37.0°F / 2.8°C 80% 30.09 in / 1018.7 hPa 10.0 miles / 16.1 kilometers SW 12.7 mph / 20.4 km/h - 0.00 in / 0.0 cm Rain Light Rain
5:53 AM 44.1°F / 6.7°C 37.0°F / 2.8°C 76% 30.09 in / 1018.7 hPa 10.0 miles / 16.1 kilometers WSW 12.7 mph / 20.4 km/h - 0.00 in / 0.0 cm   Overcast
6:31 AM 42.8°F / 6.0°C 37.4°F / 3.0°C 81% 30.09 in / 1018.8 hPa 7.0 miles / 11.3 kilometers WSW 6.9 mph / 11.1 km/h - 0.02 in / 0.5 cm Rain Light Rain
6:53 AM 43.0°F / 6.1°C 37.9°F / 3.3°C 82% 30.09 in / 1019.0 hPa 10.0 miles / 16.1 kilometers SSW 17.3 mph / 27.8 km/h 20.7 mph / 33.3 km/h 0.03 in / 0.8 cm Rain Light Rain
7:04 AM 42.8°F / 6.0°C 37.4°F / 3.0°C 81% 30.08 in / 1018.5 hPa 10.0 miles / 16.1 kilometers SW 13.8 mph / 22.2 km/h - N/A Rain Light Rain
7:29 AM 42.8°F / 6.0°C 39.2°F / 4.0°C 87% 30.08 in / 1018.5 hPa 6.0 miles / 9.7 kilometers SSW 16.1 mph / 25.9 km/h - 0.02 in / 0.5 cm Rain Light Rain
7:53 AM 42.1°F / 5.6°C 37.9°F / 3.3°C 85% 30.10 in / 1019.3 hPa 4.0 miles / 6.4 kilometers SW 20.7 mph / 33.3 km/h 32.2 mph / 51.9 km/h 0.06 in / 1.5 cm Rain Light Rain
8:53 AM 41.0°F / 5.0°C 37.0°F / 2.8°C 86% 30.09 in / 1019.0 hPa 9.0 miles / 14.5 kilometers SSW 12.7 mph / 20.4 km/h - 0.04 in / 1.0 cm Rain Light Rain
9:53 AM 41.0°F / 5.0°C 37.9°F / 3.3°C 89% 30.09 in / 1018.7 hPa 10.0 miles / 16.1 kilometers SSE 10.4 mph / 16.7 km/h - 0.00 in / 0.0 cm   Overcast
10:27 AM 42.8°F / 6.0°C 39.2°F / 4.0°C 87% 30.07 in / 1018.2 hPa 8.0 miles / 12.9 kilometers South 11.5 mph / 18.5 km/h - 0.00 in / 0.0 cm Rain Light Rain
10:53 AM 43.0°F / 6.1°C 39.0°F / 3.9°C 86% 30.07 in / 1018.2 hPa 10.0 miles / 16.1 kilometers South 15.0 mph / 24.1 km/h - 0.01 in / 0.3 cm   Overcast
11:53 AM 43.0°F / 6.1°C 41.0°F / 5.0°C 93% 30.07 in / 1018.2 hPa 3.0 miles / 4.8 kilometers South 15.0 mph / 24.1 km/h - 0.05 in / 1.3 cm Rain Light Rain
12:20 PM 42.8°F / 6.0°C 41.0°F / 5.0°C 93% 30.04 in / 1017.2 hPa 4.0 miles / 6.4 kilometers South 16.1 mph / 25.9 km/h 26.5 mph / 42.6 km/h 0.07 in / 1.8 cm Rain Light Rain
12:29 PM 44.6°F / 7.0°C 42.8°F / 6.0°C 93% 30.04 in / 1017.2 hPa 3.0 miles / 4.8 kilometers SSW 17.3 mph / 27.8 km/h 27.6 mph / 44.4 km/h 0.10 in / 2.5 cm Rain Rain
12:31 PM 44.6°F / 7.0°C 42.8°F / 6.0°C 93% 30.04 in / 1017.2 hPa 2.5 miles / 4.0 kilometers South 16.1 mph / 25.9 km/h - 0.11 in / 2.8 cm Rain Rain
12:41 PM 44.6°F / 7.0°C 42.8°F / 6.0°C 93% 30.04 in / 1017.2 hPa 3.0 miles / 4.8 kilometers South 13.8 mph / 22.2 km/h - 0.13 in / 3.3 cm Rain Light Rain
12:53 PM 45.0°F / 7.2°C 43.0°F / 6.1°C 93% 30.04 in / 1017.3 hPa 3.0 miles / 4.8 kilometers WSW 15.0 mph / 24.1 km/h 29.9 mph / 48.2 km/h 0.14 in / 3.6 cm Rain Light Rain
12:58 PM 44.6°F / 7.0°C 42.8°F / 6.0°C 93% 30.03 in / 1016.8 hPa 4.0 miles / 6.4 kilometers West 11.5 mph / 18.5 km/h 21.9 mph / 35.2 km/h 0.01 in / 0.3 cm Rain Light Rain
1:08 PM 46.4°F / 8.0°C 42.8°F / 6.0°C 87% 30.03 in / 1016.8 hPa 9.0 miles / 14.5 kilometers WSW 11.5 mph / 18.5 km/h - 0.01 in / 0.3 cm Rain Light Rain
1:15 PM 46.4°F / 8.0°C 44.6°F / 7.0°C 93% 30.03 in / 1016.8 hPa 10.0 miles / 16.1 kilometers WSW 11.5 mph / 18.5 km/h - 0.01 in / 0.3 cm   Overcast
1:53 PM 46.9°F / 8.3°C 44.1°F / 6.7°C 90% 30.04 in / 1017.2 hPa 10.0 miles / 16.1 kilometers SW 10.4 mph / 16.7 km/h - 0.01 in / 0.3 cm   Mostly Cloudy
2:35 PM 46.4°F / 8.0°C 44.6°F / 7.0°C 93% 30.03 in / 1016.8 hPa 9.0 miles / 14.5 kilometers SW 18.4 mph / 29.6 km/h - 0.02 in / 0.5 cm   Overcast
2:53 PM 46.0°F / 7.8°C 42.1°F / 5.6°C 86% 30.04 in / 1017.3 hPa 10.0 miles / 16.1 kilometers West 9.2 mph / 14.8 km/h - 0.02 in / 0.5 cm   Overcast
3:35 PM 46.4°F / 8.0°C 44.6°F / 7.0°C 93% 30.04 in / 1017.2 hPa 10.0 miles / 16.1 kilometers WSW 10.4 mph / 16.7 km/h - 0.00 in / 0.0 cm   Overcast
3:43 PM 46.4°F / 8.0°C 44.6°F / 7.0°C 93% 30.04 in / 1017.2 hPa 9.0 miles / 14.5 kilometers WSW 10.4 mph / 16.7 km/h - 0.00 in / 0.0 cm   Overcast
3:53 PM 46.9°F / 8.3°C 43.0°F / 6.1°C 86% 30.06 in / 1017.7 hPa 8.0 miles / 12.9 kilometers WSW 11.5 mph / 18.5 km/h - 0.00 in / 0.0 cm Rain Light Rain
4:08 PM 46.4°F / 8.0°C 42.8°F / 6.0°C 87% 30.05 in / 1017.5 hPa 9.0 miles / 14.5 kilometers West 13.8 mph / 22.2 km/h - 0.00 in / 0.0 cm   Overcast
4:53 PM 46.0°F / 7.8°C 39.9°F / 4.4°C 79% 30.06 in / 1018.0 hPa 10.0 miles / 16.1 kilometers West 12.7 mph / 20.4 km/h - 0.00 in / 0.0 cm   Overcast
5:53 PM 45.0°F / 7.2°C 39.9°F / 4.4°C 82% 30.09 in / 1018.9 hPa 10.0 miles / 16.1 kilometers WSW 8.1 mph / 13.0 km/h - 0.00 in / 0.0 cm   Overcast
6:53 PM 44.1°F / 6.7°C 39.9°F / 4.4°C 85% 30.09 in / 1019.0 hPa 10.0 miles / 16.1 kilometers SW 8.1 mph / 13.0 km/h - N/A   Overcast
7:53 PM 44.1°F / 6.7°C 39.9°F / 4.4°C 85% 30.10 in / 1019.1 hPa 10.0 miles / 16.1 kilometers SW 10.4 mph / 16.7 km/h - N/A   Overcast
8:53 PM 44.1°F / 6.7°C 41.0°F / 5.0°C 89% 30.11 in / 1019.4 hPa 9.0 miles / 14.5 kilometers SSW 8.1 mph / 13.0 km/h - N/A   Overcast
9:25 PM 44.6°F / 7.0°C 42.8°F / 6.0°C 93% 30.11 in / 1019.5 hPa 10.0 miles / 16.1 kilometers SW 9.2 mph / 14.8 km/h - 0.01 in / 0.3 cm   Overcast
9:39 PM 44.6°F / 7.0°C 41.0°F / 5.0°C 87% 30.10 in / 1019.2 hPa 9.0 miles / 14.5 kilometers SW 10.4 mph / 16.7 km/h - 0.01 in / 0.3 cm   Overcast
9:53 PM 44.1°F / 6.7°C 41.0°F / 5.0°C 89% 30.10 in / 1019.2 hPa 9.0 miles / 14.5 kilometers SW 9.2 mph / 14.8 km/h - 0.01 in / 0.3 cm   Overcast
10:15 PM 44.6°F / 7.0°C 41.0°F / 5.0°C 87% 30.09 in / 1018.8 hPa 10.0 miles / 16.1 kilometers South 8.1 mph / 13.0 km/h - N/A   Overcast
11:53 PM 44.1°F / 6.7°C 41.0°F / 5.0°C 89% 30.10 in / 1019.3 hPa 8.0 miles / 12.9 kilometers South 6.9 mph / 11.1 km/h - N/A   Overcast
Moon Phase
Feb. 21 Feb. 25 Mar. 04 Mar. 11 Mar. 19
Sunrise:07:09 AM (PST) Moon Rise:02:00 PM (PST)2/21
Sunset:05:49 PM (PST) Moon Set:04:28 AM (PST)2/21

Copyright © 2014 The Weather Underground, Inc.